Location: Borojevi?i
(45.0486°N, 16.2297°E)
Time: 04:36:48
(UTC+00:00)

Cosmos 614 Rocket - Pass Details

Date: 08 August 2020
Orbit: 733 x 764 km, 74.1° (Epoch: 19 September)

Event Time Altitude Azimuth Distance (km) Brightness Sun altitude
Rises 19:34:17 0° 202° (SSW) 3,174 7.0 -13.3°
Reaches altitude 10° 19:36:37 10° 203° (SSW) 2,260 6.3 -13.6°
Maximum altitude 19:41:46 81° 291° (WNW) 768 4.1 -14.3°
Drops below altitude 10° 19:46:59 10° 19° (NNE) 2,296 6.8 -15.0°
Sets 19:49:22 0° 21° (NNE) 3,230 7.5 -15.3°
